N23KF KIML-KMLE

Flight info

Callsign N23KF
Flight time 0h 48m
Altitude 31000
Route TIVRE KODPE
Aircraft PRM1/L-SDE2E3FGHRWXY/LB1

Departure

Time 2026-05-07 03:36
Airport Imperial Municipal Airport (KIML)

Arrival

Time 2026-05-07 04:24
Airport Millard Airport (KMLE)
Time Latitude Longitude Altitude Speed Heading
2026-05-07 03:14 40.51275 -101.62636 3268 ft 0 kts 61°
2026-05-07 03:21 40.51274 -101.62636 3268 ft 0 kts 61°
2026-05-07 03:21 40.51276 -101.62634 3268 ft 3 kts 58°
2026-05-07 03:21 40.51283 -101.62627 3268 ft 0 kts 330°
2026-05-07 03:24 40.51282 -101.62627 3268 ft 0 kts 330°
2026-05-07 03:25 40.51285 -101.62690 3268 ft 5 kts 270°
2026-05-07 03:26 40.51290 -101.62698 3268 ft 0 kts
2026-05-07 03:29 40.51289 -101.62698 3268 ft 0 kts
2026-05-07 03:30 40.51301 -101.62693 3268 ft 7 kts 24°
2026-05-07 03:30 40.51347 -101.62634 3267 ft 9 kts 56°
2026-05-07 03:30 40.51390 -101.62603 3268 ft 12 kts 324°
2026-05-07 03:30 40.51413 -101.62623 3268 ft 0 kts 328°
2026-05-07 03:31 40.51423 -101.62631 3267 ft 11 kts 332°
2026-05-07 03:31 40.51450 -101.62635 3268 ft 0 kts 35°
2026-05-07 03:32 40.51449 -101.62635 3268 ft 0 kts 35°
2026-05-07 03:34 40.51450 -101.62635 3268 ft 1 kts 36°
2026-05-07 03:34 40.51470 -101.62580 3269 ft 8 kts 108°
2026-05-07 03:34 40.51461 -101.62564 3269 ft 0 kts 140°
2026-05-07 03:35 40.51457 -101.62560 3267 ft 9 kts 141°
2026-05-07 03:35 40.51221 -101.62331 3267 ft 76 kts 144°
2026-05-07 03:35 40.50625 -101.61767 3311 ft 132 kts 144°
2026-05-07 03:35 40.49809 -101.60952 3696 ft 160 kts 144°
2026-05-07 03:36 40.48861 -101.59999 4316 ft 185 kts 146°
2026-05-07 03:36 40.47816 -101.58923 5166 ft 194 kts 141°
2026-05-07 03:36 40.47145 -101.57356 6113 ft 204 kts 103°
2026-05-07 03:36 40.46956 -101.55534 7184 ft 199 kts 96°
2026-05-07 03:37 40.46790 -101.53705 8121 ft 204 kts 95°
2026-05-07 03:37 40.46599 -101.51842 9172 ft 207 kts 95°
2026-05-07 03:37 40.46381 -101.49926 9961 ft 229 kts 95°
2026-05-07 03:37 40.46119 -101.47699 10055 ft 255 kts 95°
2026-05-07 03:38 40.45842 -101.45391 10017 ft 256 kts 96°
2026-05-07 03:38 40.45564 -101.43086 10010 ft 254 kts 95°
2026-05-07 03:38 40.45288 -101.40802 10008 ft 251 kts 95°
2026-05-07 03:38 40.45016 -101.38533 10051 ft 254 kts 96°
2026-05-07 03:39 40.44771 -101.36240 10818 ft 251 kts 88°
2026-05-07 03:39 40.45083 -101.34043 11882 ft 244 kts 65°
2026-05-07 03:39 40.45578 -101.31887 12910 ft 250 kts 70°
2026-05-07 03:39 40.45910 -101.29615 13998 ft 257 kts 75°
2026-05-07 03:40 40.46167 -101.27267 14962 ft 261 kts 75°
2026-05-07 03:40 40.46451 -101.24898 16012 ft 264 kts 73°
2026-05-07 03:40 40.46763 -101.22508 17062 ft 267 kts 73°
2026-05-07 03:40 40.47077 -101.20077 18144 ft 272 kts 73°
2026-05-07 03:41 40.47388 -101.17614 19125 ft 275 kts 73°
2026-05-07 03:41 40.47701 -101.15119 20114 ft 278 kts 73°
2026-05-07 03:41 40.48018 -101.12603 21110 ft 281 kts 72°
2026-05-07 03:41 40.48338 -101.10061 22151 ft 283 kts 72°
2026-05-07 03:42 40.48662 -101.07488 23144 ft 287 kts 72°
2026-05-07 03:42 40.48986 -101.04912 24039 ft 291 kts 72°
2026-05-07 03:42 40.49311 -101.02289 24415 ft 293 kts 72°
2026-05-07 03:42 40.49655 -100.99623 24552 ft 297 kts 71°
2026-05-07 03:43 40.50013 -100.96954 24814 ft 297 kts 72°
2026-05-07 03:43 40.50352 -100.94267 25030 ft 299 kts 72°
2026-05-07 03:43 40.50680 -100.91564 25260 ft 300 kts 72°
2026-05-07 03:43 40.51013 -100.88853 25488 ft 300 kts 72°
2026-05-07 03:44 40.51352 -100.86137 25712 ft 301 kts 72°
2026-05-07 03:44 40.51685 -100.83443 25929 ft 303 kts 72°
2026-05-07 03:44 40.52021 -100.80709 26150 ft 304 kts 72°
2026-05-07 03:44 40.52358 -100.77967 26371 ft 305 kts 72°
2026-05-07 03:45 40.52697 -100.75205 26598 ft 306 kts 72°
2026-05-07 03:45 40.53035 -100.72449 26853 ft 305 kts 72°
2026-05-07 03:45 40.53359 -100.69751 27961 ft 293 kts 71°
2026-05-07 03:45 40.53685 -100.67100 28846 ft 294 kts 71°
2026-05-07 03:46 40.54011 -100.64454 29779 ft 293 kts 71°
2026-05-07 03:46 40.54331 -100.61817 30605 ft 292 kts 71°
2026-05-07 03:46 40.54655 -100.59153 31114 ft 302 kts 71°
2026-05-07 03:46 40.55009 -100.56330 31146 ft 323 kts 72°
2026-05-07 03:47 40.55373 -100.53327 31140 ft 342 kts 73°
2026-05-07 03:47 40.55746 -100.50185 31138 ft 358 kts 73°
2026-05-07 03:47 40.56131 -100.46925 31132 ft 363 kts 73°
2026-05-07 03:48 40.56940 -100.40239 31131 ft 377 kts 73°
2026-05-07 03:48 40.57771 -100.33289 31129 ft 391 kts 74°
2026-05-07 03:49 40.58602 -100.26140 31126 ft 397 kts 74°
2026-05-07 03:49 40.59462 -100.18945 31134 ft 406 kts 74°
2026-05-07 03:50 40.60333 -100.11503 31126 ft 414 kts 75°
2026-05-07 03:50 40.60749 -100.07820 31117 ft 400 kts 75°
2026-05-07 03:50 40.61158 -100.04252 31106 ft 388 kts 74°
2026-05-07 03:51 40.61967 -99.97374 31111 ft 374 kts 74°
2026-05-07 03:51 40.62738 -99.90676 31110 ft 367 kts 73°
2026-05-07 03:52 40.63509 -99.84009 31112 ft 372 kts 73°
2026-05-07 03:52 40.64283 -99.77228 31128 ft 380 kts 74°
2026-05-07 03:53 40.65068 -99.70302 31124 ft 387 kts 74°
2026-05-07 03:53 40.65834 -99.63392 31117 ft 373 kts 74°
2026-05-07 03:54 40.66587 -99.56729 31112 ft 362 kts 73°
2026-05-07 03:54 40.67312 -99.50227 31111 ft 355 kts 74°
2026-05-07 03:55 40.68023 -99.43830 31116 ft 351 kts 73°
2026-05-07 03:55 40.68724 -99.37504 31112 ft 354 kts 73°
2026-05-07 03:56 40.69454 -99.30953 31121 ft 369 kts 74°
2026-05-07 03:56 40.70174 -99.24229 31115 ft 372 kts 74°
2026-05-07 03:57 40.70933 -99.17388 31113 ft 382 kts 74°
2026-05-07 03:57 40.71756 -99.10459 31105 ft 380 kts 74°
2026-05-07 03:58 40.72472 -99.03537 31107 ft 383 kts 75°
2026-05-07 03:58 40.73212 -98.96638 31103 ft 378 kts 75°
2026-05-07 03:59 40.73937 -98.89810 31090 ft 375 kts 74°
2026-05-07 03:59 40.74662 -98.82960 31097 ft 375 kts 75°
2026-05-07 04:00 40.75355 -98.76229 31100 ft 371 kts 74°
2026-05-07 04:00 40.76089 -98.69355 31111 ft 384 kts 75°
2026-05-07 04:01 40.76790 -98.62427 31110 ft 380 kts 75°
2026-05-07 04:01 40.77520 -98.55483 31112 ft 383 kts 75°
2026-05-07 04:02 40.78214 -98.48552 31104 ft 380 kts 75°
2026-05-07 04:02 40.78930 -98.41639 31099 ft 386 kts 75°
2026-05-07 04:03 40.79640 -98.34545 31097 ft 392 kts 75°
2026-05-07 04:03 40.80370 -98.27345 31095 ft 397 kts 75°
2026-05-07 04:04 40.81069 -98.20203 31084 ft 390 kts 75°
2026-05-07 04:04 40.81794 -98.13063 31081 ft 394 kts 75°
2026-05-07 04:05 40.82480 -98.05926 31078 ft 391 kts 75°
2026-05-07 04:05 40.83192 -97.98769 31081 ft 394 kts 76°
2026-05-07 04:06 40.83885 -97.91560 31088 ft 399 kts 75°
2026-05-07 04:06 40.84604 -97.84219 30721 ft 418 kts 76°
2026-05-07 04:06 40.84974 -97.80345 30381 ft 432 kts 76°
2026-05-07 04:07 40.85355 -97.76353 30028 ft 441 kts 76°
2026-05-07 04:07 40.85731 -97.72329 29601 ft 432 kts 76°
2026-05-07 04:07 40.86097 -97.68470 29204 ft 428 kts 76°
2026-05-07 04:07 40.86477 -97.64579 28923 ft 426 kts 76°
2026-05-07 04:08 40.86852 -97.60684 28649 ft 425 kts 76°
2026-05-07 04:08 40.87200 -97.56814 28405 ft 426 kts 77°
2026-05-07 04:08 40.87564 -97.52894 28004 ft 434 kts 77°
2026-05-07 04:08 40.87947 -97.48909 27613 ft 437 kts 77°
2026-05-07 04:09 40.88303 -97.44938 27224 ft 434 kts 78°
2026-05-07 04:09 40.88661 -97.40971 26743 ft 435 kts 78°
2026-05-07 04:09 40.89041 -97.36987 26236 ft 440 kts 78°
2026-05-07 04:09 40.89427 -97.32940 25745 ft 447 kts 78°
2026-05-07 04:10 40.89801 -97.28819 25263 ft 455 kts 79°
2026-05-07 04:10 40.90176 -97.24626 24790 ft 462 kts 79°
2026-05-07 04:10 40.90432 -97.21821 24466 ft 466 kts 79°
2026-05-07 04:10 40.90955 -97.16124 23709 ft 474 kts 80°
2026-05-07 04:11 40.91344 -97.11781 23041 ft 474 kts 80°
2026-05-07 04:11 40.91716 -97.07492 22360 ft 466 kts 80°
2026-05-07 04:11 40.91965 -97.04679 21917 ft 465 kts 80°
2026-05-07 04:11 40.92355 -97.00420 21259 ft 464 kts 80°
2026-05-07 04:12 40.92725 -96.96236 20542 ft 451 kts 81°
2026-05-07 04:12 40.93077 -96.92143 19786 ft 444 kts 81°
2026-05-07 04:12 40.93430 -96.88115 19051 ft 438 kts 81°
2026-05-07 04:12 40.93782 -96.84145 18338 ft 431 kts 81°
2026-05-07 04:13 40.94124 -96.80235 17518 ft 425 kts 81°
2026-05-07 04:13 40.94457 -96.76373 16720 ft 420 kts 82°
2026-05-07 04:13 40.94787 -96.72545 15942 ft 416 kts 81°
2026-05-07 04:13 40.95111 -96.68804 15193 ft 413 kts 82°
2026-05-07 04:14 40.95434 -96.65048 14455 ft 409 kts 82°
2026-05-07 04:14 40.95752 -96.61314 13708 ft 406 kts 82°
2026-05-07 04:14 40.96067 -96.57617 13015 ft 401 kts 82°
2026-05-07 04:14 40.96375 -96.53985 12477 ft 394 kts 82°
2026-05-07 04:15 40.96678 -96.50404 11949 ft 390 kts 82°
2026-05-07 04:15 40.96977 -96.46851 11432 ft 386 kts 82°
2026-05-07 04:15 40.97274 -96.43308 10930 ft 385 kts 82°
2026-05-07 04:15 40.97564 -96.39840 10389 ft 384 kts 83°
2026-05-07 04:16 40.97856 -96.36329 9755 ft 381 kts 83°
2026-05-07 04:16 40.98145 -96.32853 9080 ft 379 kts 83°
2026-05-07 04:16 40.98429 -96.29426 8305 ft 364 kts 83°
2026-05-07 04:16 40.98695 -96.26176 7525 ft 352 kts 83°
2026-05-07 04:17 40.98958 -96.22964 6835 ft 350 kts 83°
2026-05-07 04:17 40.99217 -96.19800 6332 ft 342 kts 83°
2026-05-07 04:17 40.99469 -96.16699 5809 ft 336 kts 83°
2026-05-07 04:17 40.99716 -96.13676 5305 ft 332 kts 83°
2026-05-07 04:18 40.99961 -96.10643 4797 ft 329 kts 83°
2026-05-07 04:18 41.00202 -96.07644 4282 ft 326 kts 83°
2026-05-07 04:18 41.00440 -96.04697 4022 ft 315 kts 83°
2026-05-07 04:18 41.00671 -96.01818 3990 ft 318 kts 83°
2026-05-07 04:19 41.01089 -95.98908 3991 ft 329 kts 68°
2026-05-07 04:19 41.02419 -95.96428 4004 ft 337 kts 43°
2026-05-07 04:19 41.04238 -95.94458 3984 ft 336 kts 35°
2026-05-07 04:19 41.06162 -95.92964 3976 ft 301 kts 17°
2026-05-07 04:20 41.08028 -95.92976 4337 ft 251 kts 339°
2026-05-07 04:20 41.09441 -95.94206 4000 ft 245 kts 310°
2026-05-07 04:20 41.10445 -95.95949 3573 ft 238 kts 304°
2026-05-07 04:21 41.12398 -95.99444 2889 ft 230 kts 308°
2026-05-07 04:21 41.13370 -96.00989 2778 ft 204 kts 309°
2026-05-07 04:21 41.14205 -96.02347 2690 ft 177 kts 308°
2026-05-07 04:21 41.14920 -96.03523 2441 ft 146 kts 308°
2026-05-07 04:22 41.15511 -96.04497 2177 ft 129 kts 309°
2026-05-07 04:22 41.16061 -96.05403 1927 ft 125 kts 309°
2026-05-07 04:22 41.16616 -96.06316 1748 ft 129 kts 308°
2026-05-07 04:22 41.17179 -96.07240 1619 ft 128 kts 308°
2026-05-07 04:23 41.17742 -96.08172 1514 ft 130 kts 308°
2026-05-07 04:23 41.18308 -96.09104 1391 ft 127 kts 308°
2026-05-07 04:23 41.18849 -96.09980 1232 ft 119 kts 308°
2026-05-07 04:23 41.19334 -96.10789 1058 ft 107 kts 309°
2026-05-07 04:24 41.19678 -96.11363 1056 ft 53 kts 310°
2026-05-07 04:24 41.19723 -96.11515 1056 ft 11 kts 214°
2026-05-07 04:24 41.19667 -96.11454 1055 ft 15 kts 128°
2026-05-07 04:24 41.19608 -96.11358 1055 ft 11 kts 129°
2026-05-07 04:25 41.19568 -96.11290 1056 ft 8 kts 129°
2026-05-07 04:25 41.19517 -96.11284 1054 ft 8 kts 247°
2026-05-07 04:25 41.19515 -96.11307 1054 ft 1 kts 150°
2026-05-07 04:25 41.19514 -96.11306 1054 ft 0 kts 128°